Fallon, NV

10:17 PM PST on February 26, 2017 (GMT -0800)
Fallon Naval Air Station

Weather History for KNFL - July, 2013

Change the Weather History Date:

Thursday, July 18, 2013

  Actual Average Record
Temperature  
Mean Temperature 78 °F -  
Max Temperature 100 °F 91 °F 107 °F (1960)
Min Temperature 55 °F 53 °F 43 °F (1983)
Cooling Degree Days 12    
Growing Degree Days 28 (Base 50)    
Moisture  
Dew Point 20 °F    
Average Humidity 14    
Maximum Humidity 28    
Minimum Humidity 4    
Precipitation  
Precipitation 0.00 in - - ()
Sea Level Pressure  
Sea Level Pressure 29.99 in    
Wind  
Wind Speed 4 mph (West)    
Max Wind Speed 8 mph    
Max Gust Speed -    
Visibility 10 miles    
Events      
Averages and records for this station are not official NWS values.
T = Trace of Precipitation, MM = Missing Value Source: NWS Daily Summary

Daily Weather History Graph

Daily Weather History Graph

Search for Another Location

Airport or City:

Trip Planner

Search our weather history database for the weather conditions in past years. The results will help you decide how hot, cold, wet, or windy it might be!

Date:

Astronomy

Jul. 18, 2013 Rise Set
Actual Time 5:42 AM PDT 8:18 PM PDT
Civil Twilight 5:11 AM PDT 8:49 PM PDT
Nautical Twilight 4:32 AM PDT 9:28 PM PDT
Astronomical Twilight 3:49 AM PDT 10:12 PM PDT
Moon 4:21 PM PDT (7/18) 1:36 AM PDT (7/18)
Length of Visible Light 15h 38m
Length of Day
14h 36m
Waxing Gibbous, 78% of the Moon is Illuminated
Jul 18
Waxing Gibbous
Jul 22
Full
Jul 29
Last Quarter
Aug 6
New
Aug 14
First Quarter

Hourly Weather History & Observations

Time (PDT) Temp. Dew Point Humidity Pressure Visibility Wind Dir Wind Speed Gust Speed Precip Events Conditions
12:56 AM 64.0 °F 21.9 °F 20% 30.02 in 10.0 mi Calm Calm - N/A   Clear
1:56 AM 62.1 °F 27.0 °F 26% 30.02 in 10.0 mi West 4.6 mph - N/A   Clear
2:56 AM 57.9 °F 25.0 °F 28% 30.02 in 10.0 mi SSE 5.8 mph - N/A   Clear
3:56 AM 57.9 °F 23.0 °F 26% 30.02 in 10.0 mi Calm Calm - N/A   Clear
4:56 AM 57.9 °F 21.9 °F 25% 30.02 in 10.0 mi South 3.5 mph - N/A   Clear
5:56 AM 55.9 °F 17.1 °F 22% 30.04 in 10.0 mi SE 8.1 mph - N/A   Clear
6:18 AM 57.2 °F 17.6 °F 21% 30.14 in 10.0 mi SE 6.9 mph - N/A   Clear
6:56 AM 64.9 °F 17.1 °F 16% 30.04 in 10.0 mi SE 4.6 mph - N/A   Clear
7:56 AM 72.0 °F 21.9 °F 15% 30.05 in 10.0 mi South 5.8 mph - N/A   Clear
8:56 AM 79.0 °F 30.0 °F 17% 30.06 in 10.0 mi West 4.6 mph - N/A   Clear
9:56 AM 84.0 °F 30.9 °F 15% 30.05 in 10.0 mi WNW 5.8 mph - N/A   Clear
10:56 AM 87.1 °F 17.1 °F 8% 30.04 in 10.0 mi WNW 5.8 mph - N/A   Clear
11:56 AM 91.0 °F 14.0 °F 6% 30.03 in 10.0 mi Variable 4.6 mph - N/A   Clear
12:56 PM 95.0 °F 14.0 °F 5% 30.01 in 10.0 mi Variable 3.5 mph - N/A   Clear
1:56 PM 96.1 °F 16.0 °F 5% 29.99 in 10.0 mi West 6.9 mph - N/A   Partly Cloudy
2:56 PM 97.0 °F 19.0 °F 6% 29.96 in 10.0 mi Variable 5.8 mph - N/A   Partly Cloudy
3:56 PM 98.1 °F 18.0 °F 6% 29.94 in 10.0 mi Variable 6.9 mph - N/A   Clear
4:56 PM 99.0 °F 12.0 °F 4% 29.92 in 10.0 mi WNW 4.6 mph - N/A   Clear
5:56 PM 98.1 °F 10.0 °F 4% 29.91 in 10.0 mi WNW 3.5 mph - N/A   Clear
6:56 PM 100.4 °F 10.4 °F 4% 29.90 in 10.0 mi NNE 4.6 mph - N/A   Scattered Clouds
7:56 PM 95.0 °F 14.0 °F 5% 29.90 in 10.0 mi NNE 3.5 mph - N/A   Partly Cloudy
8:56 PM 82.9 °F 18.0 °F 9% 29.91 in 10.0 mi North 3.5 mph - N/A   Scattered Clouds
9:56 PM 80.1 °F 28.0 °F 15% 29.92 in 10.0 mi NW 5.8 mph - N/A   Clear
10:56 PM 75.9 °F 27.0 °F 16% 29.92 in 10.0 mi Calm Calm - N/A   Clear
11:56 PM 71.1 °F 35.1 °F 27% 29.94 in 10.0 mi SSW 8.1 mph - N/A   Clear